Total_Precipitation_Accumulation
2.10 2.15 2.06 2.05 2.08 2.09 1.97 1.89 1.94 1.97 2.02 2.00 1.86 1.83 1.78 1.73 1.77 1.92 1.97 1.97 1.96 1.94 1.85 1.85 1.91 1.95 2.06 1.93 1.93 2.00 2.17 2.36 2.41 1.95 1.74 1.75 1.87 1.91 1.85 1.73 1.58 1.44 1.36
1.98 1.98 1.85 1.76 1.77 1.80 1.77 1.69 1.67 1.72 1.72 1.72 1.67 1.55 1.46 1.52 1.67 1.72 1.68 1.71 1.79 1.77 1.72 1.71 1.68 1.77 1.89 1.87 1.91 1.88 1.99 2.17 2.25 2.13 1.90 1.77 1.79 1.83 1.83 1.79 1.52 1.31 1.29
1.95 1.94 1.87 1.72 1.63 1.61 1.59 1.52 1.44 1.49 1.51 1.47 1.48 1.49 1.46 1.41 1.48 1.52 1.50 1.52 1.59 1.66 1.67 1.61 1.54 1.67 1.73 1.71 1.74 1.75 1.79 1.83 2.00 1.94 1.71 1.66 1.63 1.66 1.82 1.79 1.69 1.64 1.28
1.77 1.81 1.78 1.72 1.63 1.54 1.51 1.51 1.46 1.44 1.38 1.28 1.31 1.36 1.37 1.34 1.32 1.33 1.37 1.49 1.62 1.56 1.48 1.48 1.50 1.50 1.50 1.60 1.59 1.68 1.79 1.93 1.97 1.90 1.70 1.57 1.60 1.62 1.89 1.97 1.90 1.72 1.47
1.60 1.60 1.56 1.53 1.51 1.44 1.40 1.44 1.44 1.44 1.34 1.33 1.30 1.29 1.27 1.25 1.17 1.22 1.27 1.33 1.53 1.56 1.47 1.40 1.36 1.38 1.36 1.41 1.34 1.47 1.67 1.84 1.90 1.92 1.81 1.69 1.69 1.87 1.85 1.74 1.76 1.66 1.48
1.57 1.47 1.41 1.41 1.38 1.30 1.26 1.23 1.23 1.26 1.32 1.35 1.34 1.29 1.19 1.05 1.16 1.21 1.16 1.25 1.38 1.43 1.44 1.38 1.28 1.23 1.17 1.17 1.12 1.18 1.40 1.62 1.79 1.95 1.86 1.77 1.72 1.82 1.92 1.82 1.89 1.95 1.76
1.59 1.47 1.37 1.39 1.39 1.30 1.21 1.24 1.22 1.20 1.28 1.34 1.36 1.37 1.26 1.16 1.21 1.16 1.16 1.18 1.30 1.41 1.45 1.46 1.23 1.06 1.19 1.14 1.17 1.16 1.18 1.27 1.53 1.86 1.98 1.83 1.78 1.89 2.09 2.05 2.06 2.08 1.93
1.61 1.53 1.41 1.39 1.39 1.35 1.33 1.35 1.37 1.32 1.33 1.41 1.45 1.40 1.32 1.21 1.19 1.14 1.14 1.13 1.18 1.26 1.31 1.37 1.46 1.43 1.31 1.26 1.20 1.20 1.22 1.26 1.34 1.43 1.66 1.72 1.63 1.72 1.93 1.97 2.02 1.97 1.82
1.54 1.51 1.41 1.33 1.35 1.34 1.36 1.39 1.39 1.39 1.39 1.41 1.39 1.41 1.38 1.30 1.21 1.14 1.18 1.11 1.08 1.08 1.10 1.18 1.29 1.33 1.31 1.23 1.21 1.29 1.33 1.34 1.21 1.29 1.33 1.48 1.58 1.57 1.59 1.75 2.01 2.16 2.03
1.32 1.26 1.21 1.23 1.25 1.24 1.28 1.32 1.42 1.46 1.44 1.39 1.38 1.40 1.39 1.34 1.15 1.01 1.07 1.02 1.06 1.06 1.14 1.18 1.16 1.09 1.18 1.17 1.16 1.35 1.43 1.38 1.46 1.61 1.72 1.78 1.72 1.65 1.54 1.64 1.99 2.22 2.16
1.14 1.16 1.19 1.22 1.27 1.27 1.32 1.32 1.37 1.36 1.42 1.46 1.46 1.41 1.34 1.20 1.03 0.89 0.90 0.88 0.98 1.05 1.15 1.20 1.10 1.01 1.00 1.02 1.09 1.22 1.36 1.49 1.80 2.07 2.09 1.96 1.84 1.75 1.66 1.61 1.76 2.01 2.17
1.12 1.17 1.21 1.24 1.11 1.10 1.34 1.35 1.30 1.38 1.40 1.38 1.37 1.31 1.21 1.10 0.90 0.77 0.76 0.78 0.88 1.00 1.18 1.14 1.04 0.99 0.88 0.90 0.97 1.14 1.30 1.58 1.95 2.22 2.08 1.79 1.62 1.53 1.50 1.51 1.60 1.73 1.91
1.24 1.25 1.22 1.23 1.24 1.29 1.31 1.26 1.25 1.30 1.24 1.09 1.03 1.03 1.01 1.01 0.98 0.85 0.76 0.75 0.82 0.89 1.07 1.13 1.08 1.03 0.95 1.04 1.14 1.27 1.41 1.64 1.93 1.98 1.81 1.65 1.56 1.52 1.47 1.51 1.53 1.58 1.56
1.30 1.24 1.20 1.26 1.38 1.38 1.32 1.17 1.14 1.11 1.09 1.04 1.00 0.98 0.95 0.94 0.86 0.76 0.72 0.76 0.81 0.83 0.95 1.11 1.20 1.22 1.23 1.33 1.44 1.52 1.58 1.66 1.72 1.68 1.59 1.57 1.52 1.52 1.49 1.50 1.57 1.56 1.61
1.38 1.29 1.21 1.14 1.20 1.27 1.13 0.98 0.97 0.95 1.00 1.09 1.11 1.08 1.01 0.90 0.79 0.80 0.73 0.71 0.79 0.88 0.95 1.13 1.31 1.38 1.45 1.51 1.54 1.60 1.64 1.60 1.54 1.51 1.54 1.54 1.51 1.51 1.54 1.57 1.67 1.62 1.57
1.34 1.22 1.10 0.97 0.95 0.94 0.92 0.91 0.93 0.92 0.94 0.99 1.08 1.06 0.94 0.89 0.85 0.81 0.81 0.82 0.87 0.98 1.02 1.22 1.44 1.50 1.53 1.55 1.57 1.62 1.63 1.52 1.43 1.44 1.49 1.49 1.50 1.51 1.55 1.64 1.74 1.73 1.68
1.35 1.23 1.03 0.90 0.85 0.81 0.84 0.93 0.97 0.91 0.89 0.92 0.97 0.99 1.01 0.95 0.85 0.82 0.85 0.92 0.95 0.98 1.02 1.23 1.46 1.63 1.67 1.58 1.52 1.53 1.58 1.57 1.53 1.51 1.51 1.53 1.48 1.47 1.54 1.62 1.66 1.62 1.59
1.19 1.12 1.01 0.92 0.87 0.83 0.80 0.85 0.98 1.07 1.04 0.99 0.97 0.97 0.96 0.94 0.91 0.91 0.93 0.95 1.02 1.04 1.11 1.28 1.42 1.51 1.56 1.57 1.50 1.47 1.49 1.53 1.57 1.55 1.54 1.59 1.60 1.56 1.54 1.58 1.59 1.50 1.46
1.03 0.97 0.92 0.86 0.83 0.82 0.80 0.87 0.95 1.00 1.09 1.15 1.10 1.03 1.05 1.03 1.06 1.07 1.00 0.95 1.03 1.11 1.20 1.29 1.36 1.39 1.39 1.41 1.38 1.34 1.35 1.39 1.41 1.43 1.44 1.50 1.55 1.58 1.55 1.53 1.54 1.48 1.49
0.90 0.89 0.83 0.73 0.69 0.72 0.75 0.85 1.01 1.11 1.19 1.27 1.26 1.17 1.14 1.17 1.23 1.26 1.15 1.10 1.13 1.19 1.26 1.32 1.31 1.26 1.26 1.27 1.23 1.22 1.24 1.25 1.22 1.22 1.25 1.29 1.36 1.43 1.42 1.36 1.36 1.40 1.49
0.75 0.81 0.83 0.72 0.69 0.72 0.79 0.90 1.05 1.17 1.20 1.27 1.30 1.27 1.29 1.28 1.43 1.49 1.41 1.32 1.26 1.26 1.29 1.26 1.28 1.28 1.24 1.25 1.22 1.18 1.16 1.15 1.12 1.12 1.16 1.23 1.29 1.31 1.26 1.25 1.26 1.27 1.34
0.69 0.74 0.74 0.76 0.78 0.80 0.88 0.98 1.09 1.14 1.12 1.13 1.09 1.09 1.20 1.21 1.36 1.45 1.50 1.47 1.37 1.30 1.28 1.25 1.23 1.27 1.33 1.32 1.22 1.18 1.15 1.11 1.08 1.08 1.12 1.15 1.18 1.15 1.15 1.18 1.22 1.26 1.26
0.61 0.66 0.66 0.69 0.76 0.80 0.84 0.91 0.97 0.99 0.99 0.98 0.95 0.94 1.00 1.11 1.22 1.31 1.41 1.46 1.43 1.36 1.29 1.24 1.21 1.20 1.19 1.22 1.19 1.09 1.04 1.02 1.00 1.02 1.09 1.12 1.11 1.07 1.07 1.14 1.18 1.22 1.24
0.56 0.64 0.63 0.61 0.68 0.71 0.74 0.77 0.78 0.81 0.81 0.83 0.84 0.84 0.89 0.99 1.10 1.18 1.25 1.31 1.34 1.32 1.27 1.24 1.21 1.15 1.08 1.06 1.01 0.91 0.84 0.85 0.85 0.89 1.00 1.08 1.08 1.04 1.07 1.15 1.15 1.13 1.13
0.50 0.57 0.57 0.56 0.57 0.61 0.66 0.66 0.62 0.64 0.69 0.72 0.75 0.77 0.79 0.86 0.92 0.95 0.99 1.08 1.19 1.24 1.18 1.13 1.15 1.09 0.99 0.92 0.88 0.79 0.80 0.81 0.79 0.80 0.87 0.97 0.98 1.02 1.06 1.09 1.09 1.10 1.11
0.49 0.50 0.54 0.57 0.59 0.61 0.64 0.63 0.60 0.62 0.64 0.66 0.68 0.68 0.70 0.74 0.79 0.81 0.84 0.89 0.97 1.09 1.12 1.04 0.98 0.95 0.89 0.82 0.82 0.85 0.83 0.73 0.71 0.76 0.78 0.85 0.91 0.97 1.04 1.07 1.04 1.06 1.12